Year,Month,Day,Hour,Minute,Value (Times are PST for temperature in C)
2016,08,07,00,00,14.60
2016,08,07,00,01,14.60
2016,08,07,00,02,14.60
2016,08,07,00,03,14.60
2016,08,07,00,04,14.60
2016,08,07,00,05,14.60
2016,08,07,00,06,14.60
2016,08,07,00,07,14.60
2016,08,07,00,08,14.60
2016,08,07,00,09,14.60
2016,08,07,00,10,14.60
2016,08,07,00,11,14.60
2016,08,07,00,12,14.40
2016,08,07,00,13,14.40
2016,08,07,00,14,14.40
2016,08,07,00,15,14.40
2016,08,07,00,16,14.40
2016,08,07,00,17,14.30
2016,08,07,00,18,14.30
2016,08,07,00,19,14.30
2016,08,07,00,20,14.30
2016,08,07,00,21,14.30
2016,08,07,00,22,14.30
2016,08,07,00,23,14.30
2016,08,07,00,24,14.40
2016,08,07,00,25,14.40
2016,08,07,00,26,14.40
2016,08,07,00,27,14.40
2016,08,07,00,28,14.40
2016,08,07,00,29,14.40
2016,08,07,00,30,14.40
2016,08,07,00,31,14.40
2016,08,07,00,32,14.30
2016,08,07,00,33,14.30
2016,08,07,00,34,14.30
2016,08,07,00,35,14.30
2016,08,07,00,36,14.30
2016,08,07,00,37,14.30
2016,08,07,00,38,14.30
2016,08,07,00,39,14.30
2016,08,07,00,40,14.30
2016,08,07,00,41,14.30
2016,08,07,00,42,14.30
2016,08,07,00,43,14.20
2016,08,07,00,44,14.20
2016,08,07,00,45,14.20
2016,08,07,00,46,14.20
2016,08,07,00,47,14.20
2016,08,07,00,48,14.20
2016,08,07,00,49,14.10
2016,08,07,00,50,14.10
2016,08,07,00,51,14.10
2016,08,07,00,52,14.10
2016,08,07,00,53,14.10
2016,08,07,00,54,14.10
2016,08,07,00,55,14.00
2016,08,07,00,56,14.00
2016,08,07,00,57,14.00
2016,08,07,00,58,14.00
2016,08,07,00,59,14.00
2016,08,07,01,00,13.90
2016,08,07,01,01,13.90
2016,08,07,01,02,13.90
2016,08,07,01,03,13.90
2016,08,07,01,04,13.90
2016,08,07,01,05,13.90
2016,08,07,01,06,13.90
2016,08,07,01,07,13.90
2016,08,07,01,08,13.90
2016,08,07,01,09,13.90
2016,08,07,01,10,13.80
2016,08,07,01,11,13.80
2016,08,07,01,12,13.80
2016,08,07,01,13,13.80
2016,08,07,01,14,13.80
2016,08,07,01,15,13.80
2016,08,07,01,16,13.80
2016,08,07,01,17,13.80
2016,08,07,01,18,13.80
2016,08,07,01,19,13.80
2016,08,07,01,20,13.80
2016,08,07,01,21,13.80
2016,08,07,01,22,13.80
2016,08,07,01,23,13.80
2016,08,07,01,24,13.80
2016,08,07,01,25,13.80
2016,08,07,01,26,13.80
2016,08,07,01,27,13.70
2016,08,07,01,28,13.70
2016,08,07,01,29,13.70
2016,08,07,01,30,13.70
2016,08,07,01,31,13.70
2016,08,07,01,32,13.70
2016,08,07,01,33,13.70
2016,08,07,01,34,13.60
2016,08,07,01,35,13.60
2016,08,07,01,36,13.60
2016,08,07,01,37,13.60
2016,08,07,01,38,13.60
2016,08,07,01,39,13.60
2016,08,07,01,40,13.60
2016,08,07,01,41,13.60
2016,08,07,01,42,13.60
2016,08,07,01,43,13.50
2016,08,07,01,44,13.50
2016,08,07,01,45,13.50
2016,08,07,01,46,13.40
2016,08,07,01,47,13.40
2016,08,07,01,48,13.40
2016,08,07,01,49,13.40
2016,08,07,01,50,13.30
2016,08,07,01,51,13.30
2016,08,07,01,52,13.30
2016,08,07,01,53,13.30
2016,08,07,01,54,13.30
2016,08,07,01,55,13.30
2016,08,07,01,56,13.30
2016,08,07,01,57,13.30
2016,08,07,01,58,13.40
2016,08,07,01,59,13.30
2016,08,07,02,00,13.30
2016,08,07,02,01,13.30
2016,08,07,02,02,13.30
2016,08,07,02,03,13.30
2016,08,07,02,04,13.30
2016,08,07,02,05,13.30
2016,08,07,02,06,13.30
2016,08,07,02,07,13.30
2016,08,07,02,08,13.30
2016,08,07,02,09,13.30
2016,08,07,02,10,13.20
2016,08,07,02,11,13.20
2016,08,07,02,12,13.20
2016,08,07,02,13,13.20
2016,08,07,02,14,13.20
2016,08,07,02,15,13.20
2016,08,07,02,16,13.20
2016,08,07,02,17,13.10
2016,08,07,02,18,13.10
2016,08,07,02,19,13.10
2016,08,07,02,20,13.10
2016,08,07,02,21,13.10
2016,08,07,02,22,13.10
2016,08,07,02,23,13.10
2016,08,07,02,24,13.00
2016,08,07,02,25,13.00
2016,08,07,02,26,13.00
2016,08,07,02,27,13.00
2016,08,07,02,28,13.00
2016,08,07,02,29,12.90
2016,08,07,02,30,12.90
2016,08,07,02,31,12.80
2016,08,07,02,32,12.80
2016,08,07,02,33,12.80
2016,08,07,02,34,12.80
2016,08,07,02,35,12.80
2016,08,07,02,36,12.70
2016,08,07,02,37,12.70
2016,08,07,02,38,12.70
2016,08,07,02,39,12.70
2016,08,07,02,40,12.70
2016,08,07,02,41,12.70
2016,08,07,02,42,12.60
2016,08,07,02,43,12.60
2016,08,07,02,44,12.60
2016,08,07,02,45,12.60
2016,08,07,02,46,12.60
2016,08,07,02,47,12.60
2016,08,07,02,48,12.60
2016,08,07,02,49,12.60
2016,08,07,02,50,12.50
2016,08,07,02,51,12.60
2016,08,07,02,52,12.60
2016,08,07,02,53,12.60
2016,08,07,02,54,12.60
2016,08,07,02,55,12.60
2016,08,07,02,56,12.60
2016,08,07,02,57,12.60
2016,08,07,02,58,12.50
2016,08,07,02,59,12.50
2016,08,07,03,00,12.40
2016,08,07,03,01,12.40
2016,08,07,03,02,12.40
2016,08,07,03,03,12.40
2016,08,07,03,04,12.40
2016,08,07,03,05,12.40
2016,08,07,03,06,12.40
2016,08,07,03,07,12.40
2016,08,07,03,08,12.40
2016,08,07,03,09,12.40
2016,08,07,03,10,12.40
2016,08,07,03,11,12.40
2016,08,07,03,12,12.40
2016,08,07,03,13,12.40
2016,08,07,03,14,12.40
2016,08,07,03,15,12.40
2016,08,07,03,16,12.40
2016,08,07,03,17,12.40
2016,08,07,03,18,12.40
2016,08,07,03,19,12.40
2016,08,07,03,20,12.40
2016,08,07,03,21,12.40
2016,08,07,03,22,12.50
2016,08,07,03,23,12.50
2016,08,07,03,24,12.50
2016,08,07,03,25,12.50
2016,08,07,03,26,12.60
2016,08,07,03,27,12.60
2016,08,07,03,28,12.60
2016,08,07,03,29,12.60
2016,08,07,03,30,12.60
2016,08,07,03,31,12.60
2016,08,07,03,32,12.60
2016,08,07,03,33,12.60
2016,08,07,03,34,12.60
2016,08,07,03,35,12.60
2016,08,07,03,36,12.60
2016,08,07,03,37,12.60
2016,08,07,03,38,12.60
2016,08,07,03,39,12.60
2016,08,07,03,40,12.60
2016,08,07,03,41,12.60
2016,08,07,03,42,12.60
2016,08,07,03,43,12.50
2016,08,07,03,44,12.50
2016,08,07,03,45,12.50
2016,08,07,03,46,12.50
2016,08,07,03,47,12.50
2016,08,07,03,48,12.60
2016,08,07,03,49,12.60
2016,08,07,03,50,12.60
2016,08,07,03,51,12.60
2016,08,07,03,52,12.50
2016,08,07,03,53,12.50
2016,08,07,03,54,12.40
2016,08,07,03,55,12.40
2016,08,07,03,56,12.40
2016,08,07,03,57,12.40
2016,08,07,03,58,12.40
2016,08,07,03,59,12.40
2016,08,07,04,00,12.40
2016,08,07,04,01,12.40
2016,08,07,04,02,12.30
2016,08,07,04,03,12.30
2016,08,07,04,04,12.30
2016,08,07,04,05,12.30
2016,08,07,04,06,12.30
2016,08,07,04,07,12.30
2016,08,07,04,08,12.30
2016,08,07,04,09,12.30
2016,08,07,04,10,12.30
2016,08,07,04,11,12.30
2016,08,07,04,12,12.30
2016,08,07,04,13,12.30
2016,08,07,04,14,12.30
2016,08,07,04,15,12.30
2016,08,07,04,16,12.30
2016,08,07,04,17,12.30
2016,08,07,04,18,12.30
2016,08,07,04,19,12.30
2016,08,07,04,20,12.30
2016,08,07,04,21,12.30
2016,08,07,04,22,12.30
2016,08,07,04,23,12.30
2016,08,07,04,24,12.30
2016,08,07,04,25,12.20
2016,08,07,04,26,12.20
2016,08,07,04,27,12.20
2016,08,07,04,28,12.20
2016,08,07,04,29,12.20
2016,08,07,04,30,12.10
2016,08,07,04,31,12.10
2016,08,07,04,32,12.10
2016,08,07,04,33,12.10
2016,08,07,04,34,12.10
2016,08,07,04,35,12.10
2016,08,07,04,36,12.10
2016,08,07,04,37,12.10
2016,08,07,04,38,12.10
2016,08,07,04,39,12.10
2016,08,07,04,40,12.10
2016,08,07,04,41,12.10
2016,08,07,04,42,12.10
2016,08,07,04,43,12.10
2016,08,07,04,44,12.10
2016,08,07,04,45,12.10
2016,08,07,04,46,12.10
2016,08,07,04,47,12.10
2016,08,07,04,48,12.10
2016,08,07,04,49,12.10
2016,08,07,04,50,12.20
2016,08,07,04,51,12.20
2016,08,07,04,52,12.20
2016,08,07,04,53,12.20
2016,08,07,04,54,12.20
2016,08,07,04,55,12.20
2016,08,07,04,56,12.20
2016,08,07,04,57,12.20
2016,08,07,04,58,12.30
2016,08,07,04,59,12.30
2016,08,07,05,00,12.30
2016,08,07,05,01,12.30
2016,08,07,05,02,12.30
2016,08,07,05,03,12.30
2016,08,07,05,04,12.30
2016,08,07,05,05,12.40
2016,08,07,05,06,12.40
2016,08,07,05,07,12.40
2016,08,07,05,08,12.40
2016,08,07,05,09,12.40
2016,08,07,05,10,12.40
2016,08,07,05,11,12.40
2016,08,07,05,12,12.40
2016,08,07,05,13,12.40
2016,08,07,05,14,12.40
2016,08,07,05,15,12.40
2016,08,07,05,16,12.40
2016,08,07,05,17,12.40
2016,08,07,05,18,12.40
2016,08,07,05,19,12.50
2016,08,07,05,20,12.50
2016,08,07,05,21,12.50
2016,08,07,05,22,12.50
2016,08,07,05,23,12.50
2016,08,07,05,24,12.50
2016,08,07,05,25,12.60
2016,08,07,05,26,12.60
2016,08,07,05,27,12.60
2016,08,07,05,28,12.70
2016,08,07,05,29,12.70
2016,08,07,05,30,12.70
2016,08,07,05,31,12.70
2016,08,07,05,32,12.70
2016,08,07,05,33,12.60
2016,08,07,05,34,12.60
2016,08,07,05,35,12.60
2016,08,07,05,36,12.60
2016,08,07,05,37,12.60
2016,08,07,05,38,12.60
2016,08,07,05,39,12.60
2016,08,07,05,40,12.60
2016,08,07,05,41,12.60
2016,08,07,05,42,12.60
2016,08,07,05,43,12.60
2016,08,07,05,44,12.60
2016,08,07,05,45,12.60
2016,08,07,05,46,12.60
2016,08,07,05,47,12.60
2016,08,07,05,48,12.60
2016,08,07,05,49,12.60
2016,08,07,05,50,12.60
2016,08,07,05,51,12.60
2016,08,07,05,52,12.60
2016,08,07,05,53,12.60
2016,08,07,05,54,12.60
2016,08,07,05,55,12.60
2016,08,07,05,56,12.50
2016,08,07,05,57,12.50
2016,08,07,05,58,12.60
2016,08,07,05,59,12.60
2016,08,07,06,00,12.50
2016,08,07,06,01,12.50
2016,08,07,06,02,12.60
2016,08,07,06,03,12.60
2016,08,07,06,04,12.60
2016,08,07,06,05,12.60
2016,08,07,06,06,12.60
2016,08,07,06,07,12.60
2016,08,07,06,08,12.60
2016,08,07,06,09,12.60
2016,08,07,06,10,12.60
2016,08,07,06,11,12.60
2016,08,07,06,12,12.60
2016,08,07,06,13,12.60
2016,08,07,06,14,12.60
2016,08,07,06,15,12.60
2016,08,07,06,16,12.70
2016,08,07,06,17,12.70
2016,08,07,06,18,12.70
2016,08,07,06,19,12.70
2016,08,07,06,20,12.70
2016,08,07,06,21,12.70
2016,08,07,06,22,12.80
2016,08,07,06,23,12.80
2016,08,07,06,24,12.80
2016,08,07,06,25,12.80
2016,08,07,06,26,12.80
2016,08,07,06,27,12.90
2016,08,07,06,28,12.90
2016,08,07,06,29,12.90
2016,08,07,06,30,12.90
2016,08,07,06,31,12.90
2016,08,07,06,32,12.90
2016,08,07,06,33,12.90
2016,08,07,06,34,13.00
2016,08,07,06,35,13.00
2016,08,07,06,36,13.00
2016,08,07,06,37,13.00
2016,08,07,06,38,13.10
2016,08,07,06,39,13.10
2016,08,07,06,40,13.10
2016,08,07,06,41,13.10
2016,08,07,06,42,13.10
2016,08,07,06,43,13.10
2016,08,07,06,44,13.10
2016,08,07,06,45,13.10
2016,08,07,06,46,13.10
2016,08,07,06,47,13.10
2016,08,07,06,48,13.00
2016,08,07,06,49,13.00
2016,08,07,06,50,13.00
2016,08,07,06,51,13.00
2016,08,07,06,52,13.00
2016,08,07,06,53,13.00
2016,08,07,06,54,13.00
2016,08,07,06,55,13.00
2016,08,07,06,56,13.00
2016,08,07,06,57,13.00
2016,08,07,06,58,13.00
2016,08,07,06,59,13.00
2016,08,07,07,00,13.00
2016,08,07,07,01,13.00
2016,08,07,07,02,13.00
2016,08,07,07,03,13.10
2016,08,07,07,04,13.10
2016,08,07,07,05,13.10
2016,08,07,07,06,13.10
2016,08,07,07,07,13.10
2016,08,07,07,08,13.10
2016,08,07,07,09,13.10
2016,08,07,07,10,13.10
2016,08,07,07,11,13.10
2016,08,07,07,12,13.10
2016,08,07,07,13,13.10
2016,08,07,07,14,13.20
2016,08,07,07,15,13.20
2016,08,07,07,16,13.20
2016,08,07,07,17,13.20
2016,08,07,07,18,13.20
2016,08,07,07,19,13.20
2016,08,07,07,20,13.20
2016,08,07,07,21,13.20
2016,08,07,07,22,13.30
2016,08,07,07,23,13.30
2016,08,07,07,24,13.30
2016,08,07,07,25,13.30
2016,08,07,07,26,13.30
2016,08,07,07,27,13.30
2016,08,07,07,28,13.30
2016,08,07,07,29,13.30
2016,08,07,07,30,13.40
2016,08,07,07,31,13.40
2016,08,07,07,32,13.40
2016,08,07,07,33,13.40
2016,08,07,07,34,13.40
2016,08,07,07,35,13.50
2016,08,07,07,36,13.60
2016,08,07,07,37,13.70
2016,08,07,07,38,13.70
2016,08,07,07,39,13.70
2016,08,07,07,40,13.80
2016,08,07,07,41,13.80
2016,08,07,07,42,13.80
2016,08,07,07,43,13.80
2016,08,07,07,44,13.80
2016,08,07,07,45,13.90
2016,08,07,07,46,13.90
2016,08,07,07,47,13.90
2016,08,07,07,48,13.90
2016,08,07,07,49,13.90
2016,08,07,07,50,14.00
2016,08,07,07,51,14.00
2016,08,07,07,52,14.00
2016,08,07,07,53,14.00
2016,08,07,07,54,14.00
2016,08,07,07,55,14.00
2016,08,07,07,56,14.00
2016,08,07,07,57,14.00
2016,08,07,07,58,14.00
2016,08,07,07,59,14.00
2016,08,07,08,00,14.00
2016,08,07,08,01,14.10
2016,08,07,08,02,14.10
2016,08,07,08,03,14.10
2016,08,07,08,04,14.20
2016,08,07,08,05,14.20
2016,08,07,08,06,14.20
2016,08,07,08,07,14.30
2016,08,07,08,08,14.30
2016,08,07,08,09,14.30
2016,08,07,08,10,14.40
2016,08,07,08,11,14.50
2016,08,07,08,12,14.50
2016,08,07,08,13,14.60
2016,08,07,08,14,14.70
2016,08,07,08,15,14.70
2016,08,07,08,16,14.80
2016,08,07,08,17,14.90
2016,08,07,08,18,14.90
2016,08,07,08,19,14.90
2016,08,07,08,20,15.00
2016,08,07,08,21,15.00
2016,08,07,08,22,15.00
2016,08,07,08,23,15.10
2016,08,07,08,24,15.10
2016,08,07,08,25,15.10
2016,08,07,08,26,15.20
2016,08,07,08,27,15.20
2016,08,07,08,28,15.20
2016,08,07,08,29,15.30
2016,08,07,08,30,15.30
2016,08,07,08,31,15.30
2016,08,07,08,32,15.40
2016,08,07,08,33,15.60
2016,08,07,08,34,15.70
2016,08,07,08,35,15.80
2016,08,07,08,36,16.00
2016,08,07,08,37,16.10
2016,08,07,08,38,16.20
2016,08,07,08,39,16.40
2016,08,07,08,40,16.40
2016,08,07,08,41,16.50
2016,08,07,08,42,16.60
2016,08,07,08,43,16.70
2016,08,07,08,44,16.70
2016,08,07,08,45,16.80
2016,08,07,08,46,16.80
2016,08,07,08,47,16.80
2016,08,07,08,48,16.80
2016,08,07,08,49,16.80
2016,08,07,08,50,16.80
2016,08,07,08,51,16.80
2016,08,07,08,52,16.80
2016,08,07,08,53,16.80
2016,08,07,08,54,16.80
2016,08,07,08,55,16.80
2016,08,07,08,56,16.70
2016,08,07,08,57,16.60
2016,08,07,08,58,16.60
2016,08,07,08,59,16.60
2016,08,07,09,00,16.50
2016,08,07,09,01,16.50
2016,08,07,09,02,16.40
2016,08,07,09,03,16.40
2016,08,07,09,04,16.30
2016,08,07,09,05,16.30
2016,08,07,09,06,16.30
2016,08,07,09,07,16.30
2016,08,07,09,08,16.30
2016,08,07,09,09,16.20
2016,08,07,09,10,16.20
2016,08,07,09,11,16.30
2016,08,07,09,12,16.30
2016,08,07,09,13,16.30
2016,08,07,09,14,16.30
2016,08,07,09,15,16.30
2016,08,07,09,16,16.30
2016,08,07,09,17,16.30
2016,08,07,09,18,16.40
2016,08,07,09,19,16.40
2016,08,07,09,20,16.40
2016,08,07,09,21,16.50
2016,08,07,09,22,16.50
2016,08,07,09,23,16.50
2016,08,07,09,24,16.50
2016,08,07,09,25,16.50
2016,08,07,09,26,16.60
2016,08,07,09,27,16.60
2016,08,07,09,28,16.60
2016,08,07,09,29,16.60
2016,08,07,09,30,16.60
2016,08,07,09,31,16.60
2016,08,07,09,32,16.70
2016,08,07,09,33,16.70
2016,08,07,09,34,16.80
2016,08,07,09,35,16.80
2016,08,07,09,36,16.80
2016,08,07,09,37,16.80
2016,08,07,09,38,16.90
2016,08,07,09,39,16.90
2016,08,07,09,40,17.00
2016,08,07,09,41,17.00
2016,08,07,09,42,17.00
2016,08,07,09,43,17.10
2016,08,07,09,44,17.10
2016,08,07,09,45,17.10
2016,08,07,09,46,17.20
2016,08,07,09,47,17.20
2016,08,07,09,48,17.20
2016,08,07,09,49,17.20
2016,08,07,09,50,17.20
2016,08,07,09,51,17.30
2016,08,07,09,52,17.30
2016,08,07,09,53,17.30
2016,08,07,09,54,17.20
2016,08,07,09,55,17.20
2016,08,07,09,56,17.20
2016,08,07,09,57,17.20
2016,08,07,09,58,17.20
2016,08,07,09,59,17.30
2016,08,07,10,00,17.30
2016,08,07,10,01,17.40
2016,08,07,10,02,17.50
2016,08,07,10,03,17.60
2016,08,07,10,04,17.60
2016,08,07,10,05,17.70
2016,08,07,10,06,17.80
2016,08,07,10,07,17.90
2016,08,07,10,08,18.00
2016,08,07,10,09,18.10
2016,08,07,10,10,18.20
2016,08,07,10,11,18.20
2016,08,07,10,12,18.20
2016,08,07,10,13,18.20
2016,08,07,10,14,18.20
2016,08,07,10,15,18.20
2016,08,07,10,16,18.30
2016,08,07,10,17,18.30
2016,08,07,10,18,18.30
2016,08,07,10,19,18.40
2016,08,07,10,20,18.40
2016,08,07,10,21,18.40
2016,08,07,10,22,18.40
2016,08,07,10,23,18.40
2016,08,07,10,24,18.40
2016,08,07,10,25,18.30
2016,08,07,10,26,18.30
2016,08,07,10,27,18.30
2016,08,07,10,28,18.40
2016,08,07,10,29,18.40
2016,08,07,10,30,18.40
2016,08,07,10,31,18.40
2016,08,07,10,32,18.40
2016,08,07,10,33,18.40
2016,08,07,10,34,18.40
2016,08,07,10,35,18.40
2016,08,07,10,36,18.40
2016,08,07,10,37,18.30
2016,08,07,10,38,18.30
2016,08,07,10,39,18.30
2016,08,07,10,40,18.20
2016,08,07,10,41,18.20
2016,08,07,10,42,18.20
2016,08,07,10,43,18.20
2016,08,07,10,44,18.20
2016,08,07,10,45,18.20
2016,08,07,10,46,18.20
2016,08,07,10,47,18.20
2016,08,07,10,48,18.30
2016,08,07,10,49,18.30
2016,08,07,10,50,18.30
2016,08,07,10,51,18.20
2016,08,07,10,52,18.20
2016,08,07,10,53,18.20
2016,08,07,10,54,18.10
2016,08,07,10,55,18.10
2016,08,07,10,56,18.00
2016,08,07,10,57,18.00
2016,08,07,10,58,17.90
2016,08,07,10,59,17.90
2016,08,07,11,00,17.90
2016,08,07,11,01,17.90
2016,08,07,11,02,17.90
2016,08,07,11,03,17.90
2016,08,07,11,04,17.90
2016,08,07,11,05,17.90
2016,08,07,11,06,17.90
2016,08,07,11,07,17.90
2016,08,07,11,08,17.90
2016,08,07,11,09,17.90
2016,08,07,11,10,17.90
2016,08,07,11,11,17.80
2016,08,07,11,12,17.80
2016,08,07,11,13,17.80
2016,08,07,11,14,17.70
2016,08,07,11,15,17.70
2016,08,07,11,16,17.70
2016,08,07,11,17,17.60
2016,08,07,11,18,17.60
2016,08,07,11,19,17.50
2016,08,07,11,20,17.50
2016,08,07,11,21,17.50
2016,08,07,11,22,17.40
2016,08,07,11,23,17.30
2016,08,07,11,24,17.30
2016,08,07,11,25,17.20
2016,08,07,11,26,17.20
2016,08,07,11,27,17.20
2016,08,07,11,28,17.20
2016,08,07,11,29,17.20
2016,08,07,11,30,17.20
2016,08,07,11,31,17.10
2016,08,07,11,32,17.10
2016,08,07,11,33,17.10
2016,08,07,11,34,17.10
2016,08,07,11,35,17.10
2016,08,07,11,36,17.10
2016,08,07,11,37,17.10
2016,08,07,11,38,17.10
2016,08,07,11,39,17.10
2016,08,07,11,40,17.10
2016,08,07,11,41,17.10
2016,08,07,11,42,17.10
2016,08,07,11,43,17.20
2016,08,07,11,44,17.20
2016,08,07,11,45,17.20
2016,08,07,11,46,17.20
2016,08,07,11,47,17.20
2016,08,07,11,48,17.20
2016,08,07,11,49,17.20
2016,08,07,11,50,17.20
2016,08,07,11,51,17.20
2016,08,07,11,52,17.30
2016,08,07,11,53,17.30
2016,08,07,11,54,17.30
2016,08,07,11,55,17.30
2016,08,07,11,56,17.30
2016,08,07,11,57,17.30
2016,08,07,11,58,17.30
2016,08,07,11,59,17.30
2016,08,07,12,00,17.30
2016,08,07,12,01,17.30
2016,08,07,12,02,17.30
2016,08,07,12,03,17.30
2016,08,07,12,04,17.30
2016,08,07,12,05,17.30
2016,08,07,12,06,17.30
2016,08,07,12,07,17.30
2016,08,07,12,08,17.30
2016,08,07,12,09,17.30
2016,08,07,12,10,17.30
2016,08,07,12,11,17.30
2016,08,07,12,12,17.30
2016,08,07,12,13,17.30
2016,08,07,12,14,17.30
2016,08,07,12,15,17.30
2016,08,07,12,16,17.30
2016,08,07,12,17,17.30
2016,08,07,12,18,17.30
2016,08,07,12,19,17.30
2016,08,07,12,20,17.30
2016,08,07,12,21,17.30
2016,08,07,12,22,17.30
2016,08,07,12,23,17.20
2016,08,07,12,24,17.20
2016,08,07,12,25,17.20
2016,08,07,12,26,17.20
2016,08,07,12,27,17.10
2016,08,07,12,28,17.10
2016,08,07,12,29,17.10
2016,08,07,12,30,17.00
2016,08,07,12,31,17.00
2016,08,07,12,32,17.00
2016,08,07,12,33,16.90
2016,08,07,12,34,16.90
2016,08,07,12,35,16.90
2016,08,07,12,36,16.80
2016,08,07,12,37,16.80
2016,08,07,12,38,16.80
2016,08,07,12,39,16.70
2016,08,07,12,40,16.70
2016,08,07,12,41,16.80
2016,08,07,12,42,16.70
2016,08,07,12,43,16.70
2016,08,07,12,44,16.70
2016,08,07,12,45,16.80
2016,08,07,12,46,16.80
2016,08,07,12,47,16.90
2016,08,07,12,48,16.90
2016,08,07,12,49,16.90
2016,08,07,12,50,17.00
2016,08,07,12,51,17.00
2016,08,07,12,52,17.00
2016,08,07,12,53,17.00
2016,08,07,12,54,17.00
2016,08,07,12,55,17.00
2016,08,07,12,56,17.00
2016,08,07,12,57,17.10
2016,08,07,12,58,17.10
2016,08,07,12,59,17.10
2016,08,07,13,00,17.10
2016,08,07,13,01,17.10
2016,08,07,13,02,17.10
2016,08,07,13,03,17.20
2016,08,07,13,04,17.20
2016,08,07,13,05,17.30
2016,08,07,13,06,17.30
2016,08,07,13,07,17.30
2016,08,07,13,08,17.40
2016,08,07,13,09,17.40
2016,08,07,13,10,17.40
2016,08,07,13,11,17.50
2016,08,07,13,12,17.50
2016,08,07,13,13,17.50
2016,08,07,13,14,17.50
2016,08,07,13,15,17.50
2016,08,07,13,16,17.50
2016,08,07,13,17,17.40
2016,08,07,13,18,17.40
2016,08,07,13,19,17.30
2016,08,07,13,20,17.20
2016,08,07,13,21,17.10
2016,08,07,13,22,17.00
2016,08,07,13,23,17.00
2016,08,07,13,24,16.90
2016,08,07,13,25,16.90
2016,08,07,13,26,16.80
2016,08,07,13,27,16.80
2016,08,07,13,28,16.70
2016,08,07,13,29,16.70
2016,08,07,13,30,16.70
2016,08,07,13,31,16.70
2016,08,07,13,32,16.70
2016,08,07,13,33,16.70
2016,08,07,13,34,16.60
2016,08,07,13,35,16.60
2016,08,07,13,36,16.60
2016,08,07,13,37,16.50
2016,08,07,13,38,16.50
2016,08,07,13,39,16.50
2016,08,07,13,40,16.40
2016,08,07,13,41,16.30
2016,08,07,13,42,16.30
2016,08,07,13,43,16.30
2016,08,07,13,44,16.30
2016,08,07,13,45,16.30
2016,08,07,13,46,16.30
2016,08,07,13,47,16.30
2016,08,07,13,48,16.20
2016,08,07,13,49,16.20
2016,08,07,13,50,16.20
2016,08,07,13,51,16.30
2016,08,07,13,52,16.30
2016,08,07,13,53,16.30
2016,08,07,13,54,16.30
2016,08,07,13,55,16.30
2016,08,07,13,56,16.30
2016,08,07,13,57,16.40
2016,08,07,13,58,16.40
2016,08,07,13,59,16.40
2016,08,07,14,00,16.40
2016,08,07,14,01,16.40
2016,08,07,14,02,16.40
2016,08,07,14,03,16.40
2016,08,07,14,04,16.40
2016,08,07,14,05,16.40
2016,08,07,14,06,16.40
2016,08,07,14,07,16.40
2016,08,07,14,08,16.40
2016,08,07,14,09,16.30
2016,08,07,14,10,16.30
2016,08,07,14,11,16.30
2016,08,07,14,12,16.30
2016,08,07,14,13,16.30
2016,08,07,14,14,16.30
2016,08,07,14,15,16.30
2016,08,07,14,16,16.30
2016,08,07,14,17,16.20
2016,08,07,14,18,16.20
2016,08,07,14,19,16.20
2016,08,07,14,20,16.10
2016,08,07,14,21,16.10
2016,08,07,14,22,16.10
2016,08,07,14,23,16.10
2016,08,07,14,24,16.00
2016,08,07,14,25,16.00
2016,08,07,14,26,16.00
2016,08,07,14,27,15.90
2016,08,07,14,28,15.90
2016,08,07,14,29,15.90
2016,08,07,14,30,15.90
2016,08,07,14,31,15.90
2016,08,07,14,32,15.80
2016,08,07,14,33,15.80
2016,08,07,14,34,15.80
2016,08,07,14,35,15.80
2016,08,07,14,36,15.80
2016,08,07,14,37,15.80
2016,08,07,14,38,15.70
2016,08,07,14,39,15.70
2016,08,07,14,40,15.70
2016,08,07,14,41,15.70
2016,08,07,14,42,15.70
2016,08,07,14,43,15.60
2016,08,07,14,44,15.60
2016,08,07,14,45,15.60
2016,08,07,14,46,15.50
2016,08,07,14,47,15.50
2016,08,07,14,48,15.50
2016,08,07,14,49,15.40
2016,08,07,14,50,15.40
2016,08,07,14,51,15.40
2016,08,07,14,52,15.30
2016,08,07,14,53,15.30
2016,08,07,14,54,15.30
2016,08,07,14,55,15.30
2016,08,07,14,56,15.30
2016,08,07,14,57,15.30
2016,08,07,14,58,15.30
2016,08,07,14,59,15.30
2016,08,07,15,00,15.30
2016,08,07,15,01,15.40
2016,08,07,15,02,15.40
2016,08,07,15,03,15.40
2016,08,07,15,04,15.40
2016,08,07,15,05,15.40
2016,08,07,15,06,15.40
2016,08,07,15,07,15.40
2016,08,07,15,08,15.40
2016,08,07,15,09,15.40
2016,08,07,15,10,15.40
2016,08,07,15,11,15.50
2016,08,07,15,12,15.50
2016,08,07,15,13,15.50
2016,08,07,15,14,15.50
2016,08,07,15,15,15.50
2016,08,07,15,16,15.50
2016,08,07,15,17,15.50
2016,08,07,15,18,15.50
2016,08,07,15,19,15.50
2016,08,07,15,20,15.60
2016,08,07,15,21,15.60
2016,08,07,15,22,15.60
2016,08,07,15,23,15.60
2016,08,07,15,24,15.60
2016,08,07,15,25,15.60
2016,08,07,15,26,15.60
2016,08,07,15,27,15.60
2016,08,07,15,28,15.60
2016,08,07,15,29,15.60
2016,08,07,15,30,15.60
2016,08,07,15,31,15.60
2016,08,07,15,32,15.60
2016,08,07,15,33,15.60
2016,08,07,15,34,15.70
2016,08,07,15,35,15.70
2016,08,07,15,36,15.70
2016,08,07,15,37,15.70
2016,08,07,15,38,15.70
2016,08,07,15,39,15.70
2016,08,07,15,40,15.70
2016,08,07,15,41,15.70
2016,08,07,15,42,15.60
2016,08,07,15,43,15.60
2016,08,07,15,44,15.60
2016,08,07,15,45,15.60
2016,08,07,15,46,15.70
2016,08,07,15,47,15.70
2016,08,07,15,48,15.70
2016,08,07,15,49,15.70
2016,08,07,15,50,15.70
2016,08,07,15,51,15.70
2016,08,07,15,52,15.70
2016,08,07,15,53,15.70
2016,08,07,15,54,15.70
2016,08,07,15,55,15.80
2016,08,07,15,56,15.80
2016,08,07,15,57,15.80
2016,08,07,15,58,15.80
2016,08,07,15,59,15.80
2016,08,07,16,00,15.80
2016,08,07,16,01,15.80
2016,08,07,16,02,15.80
2016,08,07,16,03,15.80
2016,08,07,16,04,15.80
2016,08,07,16,05,15.90
2016,08,07,16,06,15.90
2016,08,07,16,07,15.80
2016,08,07,16,08,15.90
2016,08,07,16,09,15.90
2016,08,07,16,10,15.80
2016,08,07,16,11,15.80
2016,08,07,16,12,15.80
2016,08,07,16,13,15.90
2016,08,07,16,14,15.90
2016,08,07,16,15,15.90
2016,08,07,16,16,15.90
2016,08,07,16,17,16.00
2016,08,07,16,18,16.00
2016,08,07,16,19,16.10
2016,08,07,16,20,16.10
2016,08,07,16,21,16.10
2016,08,07,16,22,16.10
2016,08,07,16,23,16.20
2016,08,07,16,24,16.30
2016,08,07,16,25,16.30
2016,08,07,16,26,16.30
2016,08,07,16,27,16.30
2016,08,07,16,28,16.30
2016,08,07,16,29,16.30
2016,08,07,16,30,16.30
2016,08,07,16,31,16.20
2016,08,07,16,32,16.20
2016,08,07,16,33,16.10
2016,08,07,16,34,16.10
2016,08,07,16,35,16.10
2016,08,07,16,36,16.10
2016,08,07,16,37,16.10
2016,08,07,16,38,16.20
2016,08,07,16,39,16.20
2016,08,07,16,40,16.30
2016,08,07,16,41,16.30
2016,08,07,16,42,16.30
2016,08,07,16,43,16.30
2016,08,07,16,44,16.40
2016,08,07,16,45,16.40
2016,08,07,16,46,16.40
2016,08,07,16,47,16.50
2016,08,07,16,48,16.50
2016,08,07,16,49,16.50
2016,08,07,16,50,16.60
2016,08,07,16,51,16.60
2016,08,07,16,52,16.60
2016,08,07,16,53,16.60
2016,08,07,16,54,16.60
2016,08,07,16,55,16.70
2016,08,07,16,56,16.60
2016,08,07,16,57,16.70
2016,08,07,16,58,16.70
2016,08,07,16,59,16.70
2016,08,07,17,00,16.70
2016,08,07,17,01,16.80
2016,08,07,17,02,16.80
2016,08,07,17,03,16.80
2016,08,07,17,04,16.80
2016,08,07,17,05,16.80
2016,08,07,17,06,16.80
2016,08,07,17,07,16.80
2016,08,07,17,08,16.80
2016,08,07,17,09,16.80
2016,08,07,17,10,16.80
2016,08,07,17,11,16.80
2016,08,07,17,12,16.80
2016,08,07,17,13,16.80
2016,08,07,17,14,16.80
2016,08,07,17,15,16.80
2016,08,07,17,16,16.80
2016,08,07,17,17,16.80
2016,08,07,17,18,16.70
2016,08,07,17,19,16.70